Home   Weather   Saskatoon   Past weeks

Flag for Canada Past Weather in Saskatoon, Saskatchewan, Canada — Yesterday and Last 2 Weeks

Now
68 °F

Partly sunny.


Feels Like: 68 °F
Forecast: N/A
Wind: 9 mph from West

Location: Saskatoon Weather Station

Current Time: Aug 20, 2017 at 5:31:59 pm

Latest Report: Aug 20, 2017 at 5:00 pm


Visibility: 15 mi

Pressure: 29.96 "Hg

Humidity: 35%

Dew Point: 39 °F

Location of SaskatoonLocation

Past Weather in Saskatoon — Graph

°F

Saskatoon Temperature Yesterday

Maximum temperature yesterday: 70 °F (at 3:00 pm)
Minimum temperature yesterday: 46 °F (at 11:00 pm)
Average temperature yesterday: 62 °F

High & Low Weather Summary for the Past Weeks

 TemperatureHumidityPressure
High81 °F (Aug 7, 2:00 pm)100% (Aug 6, 5:19 am)30.21 "Hg (Aug 6, 5:19 am)
Low41 °F (Aug 20, 2:00 am)29% (Aug 16, 2:00 pm)29.60 "Hg (Aug 19, 3:00 am)
Average64 °F67%30.00 "Hg
* Reported Aug 5 4:00 pm — Aug 20 4:00 pm, Saskatoon. Weather by CustomWeather, © 2017

Note: Actual official high and low records may vary slightly from our data, if they occured in-between our weather recording intervals... More about our weather records

Advertising

Saskatoon Weather History for the Previous 24 Hours

Scroll right to see more
 ConditionsComfort  
Time TempWeatherWind HumidityBarometerVisibility
4:00 pm
Sun, Aug 20
68 °FPartly sunny.8 mph40%29.98 "Hg15 mi
3:00 pm68 °FPartly sunny.9 mph49%29.98 "Hg15 mi
2:00 pm66 °FMostly cloudy.9 mph49%29.99 "Hg15 mi
1:00 pm64 °FPartly sunny.17 mph49%30.00 "Hg15 mi
12:00 pm64 °FBroken clouds.9 mph52%30.00 "Hg15 mi
11:41 am61 °FMore clouds than sun.12 mph59%30.02 "Hg15 mi
11:00 am57 °FMostly cloudy.13 mph67%30.04 "Hg15 mi
10:18 am57 °FLight rain. Partly sunny.8 mph63%30.03 "Hg15 mi
10:00 am57 °FPartly sunny.13 mph63%30.03 "Hg15 mi
9:00 am57 °FPartly sunny.13 mph59%30.02 "Hg15 mi
8:00 am54 °FPartly sunny.9 mph67%30.00 "Hg15 mi
7:00 am48 °FPartly sunny.9 mph82%30.00 "Hg15 mi
6:00 am43 °FBroken clouds.7 mph87%30.00 "Hg15 mi
5:00 am41 °FPassing clouds.7 mph93%30.00 "Hg15 mi
4:00 am41 °FClear.8 mph93%29.99 "Hg15 mi
3:00 am41 °FClear.8 mph93%29.98 "Hg15 mi
2:00 am41 °FClear.7 mph93%29.98 "Hg15 mi
1:00 am45 °FClear.7 mph81%29.98 "Hg15 mi
12:00 am45 °FClear.8 mph81%29.98 "Hg15 mi
11:00 pm
Sat, Aug 19
46 °FClear.7 mph82%29.96 "Hg15 mi
10:00 pm50 °FClear.6 mph71%29.96 "Hg15 mi
9:00 pm54 °FPassing clouds.8 mph63%29.95 "Hg15 mi
8:00 pm63 °FPassing clouds.9 mph45%29.91 "Hg15 mi
7:00 pm66 °FPassing clouds.13 mph37%29.88 "Hg15 mi
6:00 pm68 °FPassing clouds.21 mph33%29.87 "Hg15 mi
5:00 pm68 °FScattered clouds.21 mph35%29.86 "Hg15 mi
Weather by CustomWeather, © 2017

See weather overviewHow to use our weather pages